THOR ABLESTAR DEB, 409

Orbit data source: Space-Track

THOR ABLESTAR DEB, 409 is space debris in LEO originally from a launch on Thu, 29 Jun 1961 UTC launched from the Air Force Eastern Test Range (AFETR). Debris objects in space refer to the collection of defunct objects orbiting the Earth. Examples of debris include non-operational satellites, rocket bodies, and fragments generated from explosions, collisions, or faulty payload assembly.

Loading next visibility...
Identifier
409, 1961-015EJ
Orbit
LEO
Country
Flag of USUS
Related business
Manufacturer
Unknown
Mission
Spacecraft
Bus & Motor
Unknown
Mass
Unknown
Launch date (UTC)
1961-06-29 (64 years ago)
Launch vehicle
Unknown
Launch site
Air Force Eastern Test Range (AFETR)
Object type
Payload
Rocket body
Debris
Shape & HBR
Unknown shape, 0.1 m
Radar Cross Section
Small (<0.1 m²)

Expand to show TLE details & history
Last TLE update: 10 hours ago

TLE from 10 hours ago
0 THOR ABLESTAR DEB
1 00409U 61015EJ  25291.87903597  .00003111  00000-0  12510-2 0  9990
2 00409  66.7125 259.1235 0064328 343.6685  16.2338 14.28272488306836
Epoch: 2025-10-18T21:05Z
TLE epoch observation values (Epoch: 2025-10-18T21:05:48.707Z)
Latitude
-0.00004°
Longitude
-84.93319°
Altitude
755.317 km
Speed
7.5 km/s
True Right ascension
17h 16m 29s
True Declination
0° 00' 00"
Sunlit
Object was in daylight at epoch
Visualization orbit readout
Latitude
Unknown
Longitude
Unknown
Altitude
Unknown
Speed
Unknown
Apparent Right ascension
Unknown
Apparent Declination
Unknown
Sunlit
N/A
Visualization observer readout
Local Sidereal Time
01:51:02
Azimuth
Unknown
Elevation
Unknown
Doppler factor
Unknown
Orbital elements
Apogee altitude
842.035 km
Perigee altitude
749.737 km
Semi-major axis
7,174.023 km
Eccentricity
0.00643
Inclination
66.7125°
RAAN
259.1235°
Arg. of periapsis
343.6685°
True anomaly
16.44148°
Mean anomaly
16.2338°
Eccentric anomaly
16.33748°
Mean motion
3.5719 °/min
Orbital period
100.79 mins
BSTAR
0.001251

Documentation

Showing up to 5 results
|